GFSNW_700_temp_372.txt.gz
Temp
-5 -4 -4 -4 -4 -4 -4 -4 -4 -3 -4 -4 -4 -4 -3 -2 -2 -1 -1 -1 -1 -0 0 0 0 1 1 1 1 0 -1 -1 -2 -2 -1 -2 -3 -2 -1 -1 -2 -1 -3 1
-6 -5 -5 -5 -5 -4 -4 -4 -5 -4 -4 -4 -4 -3 -3 -2 -2 -2 -2 -2 -2 -1 -1 -1 -1 -0 0 0 1 0 -0 -2 -2 -4 -5 -4 -3 -1 -1 -1 -1 -2 -0 3
-6 -7 -6 -5 -5 -5 -5 -6 -6 -6 -5 -5 -4 -4 -4 -3 -2 -2 -3 -2 -2 -3 -2 -2 -1 -1 -1 -1 -0 -0 -1 -1 -0 0 1 0 -2 -0 -0 -1 -3 -1 -1 1
-6 -6 -8 -7 -7 -6 -6 -6 -6 -6 -5 -5 -5 -5 -4 -4 -3 -3 -3 -3 -3 -3 -3 -3 -3 -3 -3 -2 -2 -1 -2 -2 -2 -1 -1 -2 -1 -1 -1 -1 -0 -3 1 -1
-6 -6 -6 -7 -9 -8 -8 -6 -6 -6 -6 -6 -6 -5 -4 -4 -4 -4 -3 -3 -3 -3 -3 -3 -3 -4 -4 -3 -3 -3 -3 -3 -4 -3 -3 -3 -3 -2 -2 -3 -3 -2 -2 -1
-8 -6 -6 -7 -7 -9 -8 -8 -7 -7 -7 -6 -6 -4 -4 -4 -4 -4 -4 -4 -4 -5 -4 -4 -5 -6 -6 -5 -5 -4 -4 -4 -5 -5 -5 -6 -5 -3 -3 -3 -2 -2 -2 2
-7 -6 -7 -7 -7 -7 -6 -7 -8 -8 -7 -8 -6 -6 -5 -5 -4 -4 -4 -4 -4 -5 -5 -6 -7 -7 -6 -7 -6 -6 -6 -6 -7 -6 -7 -7 -2 -2 -3 -3 -3 -3 -2 0
-8 -8 -7 -7 -6 -7 -7 -8 -9 -8 -8 -7 -7 -6 -6 -6 -6 -6 -6 -6 -6 -6 -7 -7 -7 -8 -8 -7 -7 -7 -7 -7 -8 -8 -8 -5 -4 -4 -5 -5 -3 -3 -3 -2
-9 -8 -8 -8 -6 -7 -7 -8 -8 -8 -8 -7 -6 -7 -7 -7 -6 -7 -7 -7 -8 -8 -9 -9 -9 -8 -8 -7 -7 -7 -8 -8 -8 -8 -8 -6 -2 -4 -5 -5 -5 -4 -3 -2
-11 -9 -9 -9 -8 -8 -7 -7 -7 -8 -8 -8 -8 -8 -7 -7 -8 -7 -7 -6 -8 -8 -9 -9 -9 -8 -7 -7 -7 -7 -8 -9 -9 -8 -8 -7 -5 -5 -6 -6 -4 -4 -4 -3
-12 -11 -10 -9 -9 -8 -9 -8 -7 -7 -7 -8 -8 -8 -8 -8 -8 -8 -7 -8 -9 -9 -9 -9 -9 -9 -8 -8 -7 -7 -7 -9 -9 -9 -8 -8 -5 -6 -7 -6 -5 -5 -5 -5
-12 -12 -12 -11 -10 -10 -9 -9 -9 -8 -9 -9 -9 -9 -8 -8 -8 -9 -8 -8 -8 -8 -9 -9 -9 -9 -9 -7 -8 -7 -8 -7 -7 -7 -7 -6 -6 -6 -6 -7 -7 -6 -6 -6
-12 -12 -12 -12 -11 -11 -11 -11 -10 -10 -10 -11 -10 -10 -9 -9 -9 -9 -9 -8 -9 -8 -8 -9 -9 -9 -8 -8 -8 -8 -8 -8 -8 -8 -8 -8 -7 -7 -7 -7 -7 -7 -7 -7
-13 -13 -13 -13 -13 -12 -13 -13 -12 -12 -12 -11 -10 -11 -10 -10 -10 -10 -9 -9 -9 -9 -9 -9 -9 -9 -9 -9 -8 -9 -9 -8 -9 -9 -9 -9 -9 -8 -8 -9 -9 -10 -10 -9
-14 -13 -13 -13 -13 -13 -13 -12 -13 -13 -12 -12 -12 -12 -11 -11 -10 -10 -10 -10 -10 -10 -10 -10 -10 -10 -10 -10 -10 -10 -10 -10 -10 -11 -10 -10 -10 -11 -10 -10 -11 -11 -11 -12
-14 -14 -14 -13 -14 -13 -13 -13 -13 -13 -13 -13 -13 -13 -12 -12 -11 -11 -12 -12 -12 -11 -12 -11 -11 -11 -12 -11 -11 -11 -10 -11 -11 -11 -11 -11 -11 -11 -11 -11 -12 -13 -13 -13
-15 -14 -14 -14 -14 -14 -14 -14 -14 -14 -14 -14 -14 -14 -13 -13 -13 -13 -13 -12 -12 -13 -13 -13 -13 -13 -13 -12 -13 -12 -12 -12 -12 -13 -13 -13 -13 -13 -12 -12 -12 -13 -13 -13
-15 -15 -15 -15 -15 -15 -15 -15 -15 -15 -15 -15 -15 -15 -15 -15 -15 -14 -14 -14 -14 -14 -14 -14 -14 -14 -14 -14 -14 -14 -14 -13 -13 -14 -14 -14 -14 -14 -15 -15 -15 -15 -15 -14
-15 -15 -15 -15 -15 -15 -15 -15 -15 -15 -16 -16 -16 -16 -16 -16 -16 -16 -16 -16 -16 -16 -16 -15 -15 -15 -15 -15 -15 -15 -14 -15 -14 -15 -14 -15 -15 -15 -15 -15 -15 -15 -15 -15
-15 -15 -16 -16 -16 -16 -16 -16 -16 -17 -17 -17 -18 -19 -19 -18 -18 -18 -18 -18 -17 -17 -17 -17 -17 -16 -17 -16 -16 -16 -16 -16 -16 -16 -16 -16 -16 -16 -16 -16 -16 -16 -16 -16
-15 -16 -16 -17 -17 -17 -17 -17 -17 -18 -19 -20 -20 -20 -20 -19 -20 -20 -20 -19 -19 -18 -18 -19 -18 -19 -22 -22 -21 -20 -19 -19 -19 -19 -18 -18 -17 -17 -18 -18 -18 -17 -17 -17
-16 -16 -17 -17 -17 -18 -18 -18 -19 -20 -20 -21 -21 -21 -21 -21 -21 -21 -22 -21 -20 -21 -21 -21 -21 -25 -25 -25 -25 -24 -24 -23 -23 -22 -22 -21 -20 -19 -19 -20 -20 -19 -19 -19
-17 -17 -17 -18 -18 -18 -19 -20 -22 -22 -22 -23 -23 -23 -23 -23 -23 -23 -23 -23 -23 -24 -23 -24 -26 -27 -27 -26 -26 -26 -25 -25 -25 -25 -24 -23 -23 -22 -22 -21 -21 -20 -20 -20
-17 -17 -18 -18 -19 -20 -21 -22 -23 -23 -24 -24 -24 -24 -24 -24 -25 -25 -24 -25 -24 -24 -25 -26 -27 -27 -26 -26 -26 -25 -26 -25 -25 -25 -24 -24 -24 -24 -23 -23 -22 -22 -21 -21
-17 -18 -19 -20 -20 -21 -21 -22 -23 -23 -24 -24 -24 -25 -25 -25 -26 -25 -25 -25 -25 -26 -27 -27 -27 -27 -27 -26 -26 -26 -26 -26 -26 -26 -25 -25 -24 -24 -24 -23 -23 -23 -23 -22
-19 -19 -20 -20 -21 -22 -22 -23 -24 -24 -25 -24 -25 -25 -26 -26 -26 -26 -26 -26 -27 -27 -27 -27 -27 -27 -28 -28 -27 -27 -27 -27 -27 -27 -27 -26 -26 -26 -25 -25 -24 -24 -23 -24
-19 -20 -21 -21 -22 -22 -23 -24 -24 -25 -25 -25 -25 -26 -26 -26 -27 -26 -27 -27 -28 -28 -28 -28 -28 -28 -29 -29 -28 -28 -28 -28 -28 -28 -27 -27 -27 -27 -27 -26 -26 -25 -24 -24

GFSNW_700_temp_375.txt.gz
Temp
-5 -4 -4 -4 -4 -4 -4 -3 -4 -4 -5 -5 -5 -5 -4 -2 -1 -1 -1 -1 -1 -0 0 0 -0 -0 0 1 -1 -0 -1 -1 -2 -2 -2 -3 -3 -3 -1 0 -1 -0 1 3
-6 -6 -5 -4 -4 -4 -4 -4 -4 -5 -4 -5 -6 -6 -4 -3 -2 -2 -2 -2 -1 -1 -0 -0 -0 0 -0 0 -0 -1 -1 -2 -3 -4 -4 -4 -4 -2 -1 -1 -0 -1 1 4
-5 -7 -8 -6 -5 -5 -5 -5 -6 -6 -5 -5 -6 -6 -4 -4 -3 -3 -3 -2 -2 -2 -1 -1 -1 -1 -0 -0 -0 -1 -2 -2 -1 1 1 1 -1 0 -1 -2 -3 -1 -0 2
-5 -6 -7 -8 -8 -6 -6 -6 -6 -4 -5 -5 -5 -6 -5 -3 -4 -3 -3 -3 -3 -3 -2 -2 -2 -2 -1 -1 -1 -1 -2 -2 -2 -1 -0 -1 -1 -1 -0 -1 -0 -2 2 1
-6 -6 -6 -6 -9 -8 -8 -6 -6 -6 -6 -5 -5 -6 -4 -4 -3 -4 -3 -3 -2 -3 -3 -3 -3 -3 -3 -2 -2 -2 -2 -3 -2 -2 -2 -2 -2 -1 -1 -1 -1 -1 -1 -1
-7 -6 -6 -7 -7 -9 -9 -8 -7 -7 -6 -6 -6 -4 -4 -4 -4 -4 -4 -3 -4 -3 -3 -3 -4 -4 -4 -4 -4 -4 -4 -4 -4 -4 -4 -4 -4 -2 -2 -2 -2 -1 -1 3
-8 -7 -6 -7 -7 -8 -8 -8 -8 -7 -7 -7 -5 -6 -5 -4 -4 -4 -4 -4 -4 -4 -4 -5 -6 -6 -6 -5 -5 -5 -6 -5 -5 -5 -5 -6 -3 -2 -2 -2 -2 -2 -2 1
-8 -7 -7 -7 -7 -7 -8 -8 -8 -8 -8 -7 -7 -6 -7 -6 -6 -6 -5 -5 -5 -5 -6 -6 -7 -7 -7 -6 -5 -5 -6 -6 -6 -6 -6 -5 -3 -4 -4 -4 -3 -2 -2 -2
-11 -10 -8 -8 -7 -7 -7 -8 -7 -8 -8 -8 -6 -8 -8 -7 -7 -7 -6 -7 -7 -7 -9 -7 -7 -7 -7 -7 -7 -6 -6 -7 -7 -8 -7 -6 -3 -4 -4 -5 -5 -4 -3 -3
-11 -11 -9 -8 -8 -8 -7 -8 -7 -8 -8 -6 -9 -8 -7 -8 -8 -9 -9 -9 -9 -8 -9 -9 -9 -9 -8 -8 -7 -7 -9 -9 -9 -8 -7 -6 -5 -5 -5 -6 -4 -4 -4 -3
-12 -11 -11 -10 -9 -9 -8 -8 -7 -8 -8 -8 -8 -8 -8 -8 -8 -8 -8 -9 -9 -8 -9 -9 -9 -9 -8 -8 -7 -7 -7 -9 -9 -9 -8 -7 -6 -6 -6 -6 -5 -5 -5 -5
-12 -11 -11 -11 -11 -10 -9 -9 -8 -8 -8 -8 -8 -8 -8 -8 -8 -8 -8 -8 -8 -8 -9 -9 -9 -8 -8 -8 -8 -7 -8 -7 -7 -7 -7 -6 -5 -6 -6 -6 -6 -6 -5 -5
-12 -12 -12 -11 -11 -10 -10 -9 -9 -9 -9 -9 -9 -9 -8 -8 -8 -8 -8 -8 -8 -8 -8 -8 -8 -8 -8 -8 -8 -7 -8 -7 -8 -7 -8 -7 -6 -6 -6 -6 -7 -7 -7 -7
-12 -12 -12 -12 -12 -12 -12 -11 -11 -11 -10 -10 -11 -10 -10 -9 -9 -9 -9 -9 -9 -9 -9 -9 -9 -9 -8 -8 -8 -8 -8 -8 -8 -8 -8 -8 -8 -7 -7 -8 -8 -8 -8 -8
-13 -13 -13 -13 -13 -13 -12 -12 -12 -11 -11 -12 -11 -11 -11 -10 -10 -10 -10 -9 -9 -9 -9 -10 -10 -9 -9 -9 -9 -9 -9 -9 -9 -9 -9 -9 -9 -8 -9 -9 -9 -10 -10 -10
-14 -14 -14 -13 -13 -13 -13 -13 -13 -13 -13 -12 -13 -12 -11 -11 -11 -11 -11 -11 -11 -11 -10 -11 -11 -11 -11 -11 -11 -10 -10 -10 -10 -10 -10 -10 -10 -11 -10 -11 -11 -11 -11 -11
-14 -14 -14 -14 -14 -14 -14 -14 -13 -13 -14 -14 -14 -14 -13 -13 -13 -12 -12 -12 -12 -12 -13 -13 -12 -12 -13 -13 -12 -12 -12 -11 -11 -11 -11 -11 -11 -11 -11 -11 -12 -12 -13 -13
-15 -14 -14 -14 -14 -14 -14 -14 -14 -15 -15 -15 -15 -15 -15 -15 -14 -14 -14 -14 -13 -14 -14 -14 -14 -14 -14 -13 -13 -13 -13 -13 -13 -13 -13 -13 -13 -13 -12 -13 -13 -14 -14 -14
-15 -15 -15 -15 -15 -15 -15 -15 -15 -15 -15 -15 -16 -16 -16 -17 -16 -16 -15 -15 -15 -15 -15 -15 -16 -15 -15 -14 -14 -14 -14 -14 -14 -14 -14 -14 -14 -14 -14 -14 -14 -14 -14 -15
-15 -15 -15 -15 -16 -16 -16 -16 -16 -16 -16 -16 -17 -19 -18 -18 -18 -18 -18 -18 -17 -17 -17 -17 -17 -16 -18 -17 -17 -16 -16 -16 -16 -16 -16 -16 -15 -15 -15 -15 -15 -15 -15 -15
-16 -16 -16 -16 -17 -17 -17 -17 -17 -18 -18 -19 -20 -19 -19 -19 -19 -19 -19 -19 -18 -19 -19 -19 -19 -20 -22 -22 -21 -21 -20 -20 -20 -19 -19 -18 -18 -18 -18 -18 -17 -17 -16 -16
-16 -16 -17 -17 -17 -18 -18 -18 -19 -20 -20 -21 -21 -21 -21 -21 -21 -21 -21 -21 -20 -21 -22 -21 -23 -26 -26 -26 -25 -25 -24 -24 -24 -23 -23 -23 -22 -21 -20 -20 -20 -19 -19 -19
-17 -17 -17 -18 -18 -18 -19 -20 -21 -22 -22 -23 -23 -23 -23 -23 -23 -23 -23 -23 -24 -24 -24 -26 -26 -27 -27 -26 -26 -26 -26 -25 -25 -25 -24 -24 -24 -24 -23 -23 -22 -22 -21 -21
-17 -17 -18 -18 -19 -20 -21 -22 -22 -23 -23 -23 -23 -23 -24 -24 -24 -24 -24 -25 -24 -25 -26 -28 -27 -27 -27 -27 -26 -26 -26 -26 -26 -26 -26 -25 -25 -24 -24 -24 -23 -23 -23 -22
-17 -18 -19 -20 -21 -21 -22 -22 -23 -23 -24 -24 -24 -24 -25 -25 -25 -25 -25 -25 -26 -26 -28 -28 -28 -27 -27 -27 -28 -28 -27 -27 -27 -27 -27 -26 -26 -26 -25 -25 -24 -24 -23 -23
-19 -19 -20 -21 -21 -22 -23 -23 -24 -24 -24 -25 -25 -25 -25 -26 -26 -26 -26 -26 -27 -28 -27 -28 -28 -28 -28 -28 -28 -28 -28 -28 -28 -28 -28 -27 -27 -27 -26 -26 -26 -26 -25 -24
-20 -21 -21 -22 -22 -22 -23 -24 -24 -25 -25 -25 -26 -25 -26 -26 -27 -27 -27 -28 -28 -28 -29 -29 -30 -30 -30 -30 -30 -29 -29 -29 -29 -29 -28 -28 -28 -28 -27 -27 -27 -26 -26 -26

GFSNW_700_temp_378.txt.gz
Temp
-5 -6 -7 -5 -5 -4 -4 -4 -5 -4 -5 -6 -6 -5 -5 -4 -2 -1 -1 -1 -1 -1 0 -0 -1 -1 -1 -0 -0 -0 -1 -1 -1 -2 -1 -2 -2 -1 -0 1 -1 1 -0 3
-5 -6 -6 -7 -6 -5 -4 -5 -6 -6 -6 -6 -6 -7 -5 -5 -4 -2 -2 -2 -2 -1 -0 -1 -1 -1 -0 -1 -0 -2 -2 -2 -3 -4 -4 -4 -3 -2 -1 -0 0 1 -1 2
-6 -5 -6 -6 -8 -6 -6 -6 -9 -7 -7 -5 -5 -5 -5 -6 -5 -4 -3 -3 -2 -2 -1 -1 -1 -1 -1 -1 -0 -2 -2 -2 -1 -2 0 1 -1 0 -1 -1 -2 -1 1 2
-6 -5 -6 -6 -7 -9 -8 -7 -7 -6 -7 -6 -6 -7 -6 -5 -4 -4 -5 -5 -4 -3 -2 -2 -2 -1 -2 -1 -1 -2 -3 -3 -2 -1 -1 -1 -0 0 0 -1 -0 -1 0 1
-6 -6 -6 -6 -7 -8 -10 -9 -8 -7 -6 -5 -6 -6 -5 -4 -4 -5 -4 -5 -4 -5 -5 -5 -5 -4 -2 -2 -2 -2 -3 -3 -2 -2 -2 -2 -2 -1 -1 -1 -1 -1 0 1
-7 -7 -7 -7 -7 -8 -8 -9 -9 -8 -6 -7 -6 -5 -6 -5 -5 -5 -4 -4 -4 -5 -5 -4 -4 -3 -3 -3 -3 -2 -3 -4 -4 -4 -3 -3 -4 -1 -2 -2 -1 -1 -1 2
-9 -8 -8 -7 -7 -8 -7 -8 -8 -9 -8 -7 -6 -6 -6 -6 -6 -5 -5 -5 -5 -6 -5 -6 -6 -6 -6 -5 -4 -4 -4 -4 -6 -5 -5 -7 -2 -2 -1 -1 -1 -1 0 0
-11 -9 -9 -7 -7 -7 -7 -8 -9 -9 -10 -10 -9 -8 -8 -7 -7 -8 -6 -6 -5 -5 -5 -6 -5 -6 -6 -5 -5 -5 -5 -6 -7 -6 -5 -4 -3 -3 -3 -3 -1 -1 -1 -0
-12 -11 -10 -7 -9 -6 -7 -7 -8 -9 -9 -8 -7 -10 -9 -10 -9 -8 -8 -7 -7 -7 -7 -7 -7 -8 -7 -6 -6 -5 -5 -6 -7 -6 -6 -7 -4 -3 -3 -3 -5 -3 -3 -2
-12 -11 -10 -9 -7 -7 -7 -8 -8 -9 -8 -7 -9 -9 -8 -9 -10 -9 -9 -9 -9 -9 -8 -8 -9 -9 -8 -7 -7 -6 -7 -9 -8 -8 -7 -6 -5 -4 -4 -5 -4 -3 -3 -3
-12 -11 -11 -10 -8 -8 -8 -8 -8 -8 -8 -9 -9 -8 -8 -9 -9 -9 -8 -10 -10 -10 -10 -10 -9 -9 -8 -8 -7 -7 -7 -8 -9 -9 -8 -7 -6 -5 -6 -5 -5 -4 -4 -4
-12 -12 -11 -11 -10 -8 -8 -8 -8 -8 -8 -8 -9 -9 -8 -8 -9 -9 -8 -8 -8 -8 -9 -9 -9 -9 -9 -8 -8 -7 -7 -7 -6 -7 -6 -5 -5 -6 -6 -5 -5 -5 -5 -5
-12 -12 -11 -11 -11 -11 -10 -9 -9 -9 -9 -8 -8 -9 -9 -9 -9 -8 -9 -9 -8 -8 -8 -9 -9 -9 -9 -8 -8 -7 -7 -7 -8 -7 -7 -6 -6 -5 -6 -6 -6 -7 -6 -6
-12 -11 -11 -11 -11 -11 -11 -10 -10 -9 -9 -9 -10 -9 -9 -9 -9 -9 -9 -9 -9 -8 -8 -9 -9 -8 -8 -8 -8 -8 -8 -8 -8 -8 -8 -7 -7 -6 -6 -6 -7 -7 -7 -7
-12 -12 -12 -12 -12 -12 -12 -11 -11 -10 -10 -10 -10 -10 -10 -10 -10 -9 -9 -9 -9 -9 -9 -9 -9 -9 -9 -8 -8 -9 -8 -8 -8 -8 -8 -8 -7 -7 -7 -7 -8 -8 -8 -8
-13 -13 -13 -13 -13 -12 -12 -12 -12 -12 -11 -11 -11 -11 -11 -11 -11 -11 -10 -10 -10 -10 -10 -10 -10 -10 -10 -10 -10 -9 -9 -9 -9 -9 -9 -9 -9 -9 -9 -9 -9 -10 -10 -10
-14 -14 -13 -13 -13 -13 -13 -13 -13 -13 -13 -13 -13 -13 -13 -12 -12 -12 -12 -12 -12 -11 -11 -12 -12 -11 -11 -11 -11 -10 -10 -10 -10 -10 -11 -11 -11 -11 -11 -11 -11 -11 -12 -11
-14 -14 -14 -14 -14 -14 -13 -13 -13 -13 -13 -14 -14 -14 -14 -14 -13 -13 -13 -13 -13 -13 -14 -13 -13 -13 -13 -13 -13 -12 -12 -12 -12 -12 -12 -12 -12 -12 -12 -11 -12 -12 -12 -12
-15 -15 -15 -15 -15 -15 -15 -15 -15 -15 -15 -15 -15 -15 -15 -16 -15 -15 -15 -15 -15 -15 -15 -15 -15 -15 -15 -15 -15 -15 -15 -15 -14 -14 -13 -14 -14 -14 -14 -14 -14 -14 -14 -14
-15 -15 -15 -15 -15 -16 -16 -16 -16 -16 -16 -17 -18 -18 -18 -17 -17 -17 -17 -17 -16 -17 -17 -17 -17 -17 -18 -18 -18 -18 -18 -18 -18 -18 -18 -17 -17 -16 -16 -16 -15 -15 -15 -14
-16 -16 -16 -16 -16 -16 -16 -17 -17 -18 -19 -20 -20 -20 -20 -19 -19 -19 -19 -18 -18 -19 -19 -19 -20 -22 -23 -24 -23 -23 -23 -22 -22 -21 -21 -20 -20 -19 -19 -19 -18 -17 -17 -16
-16 -17 -17 -17 -17 -17 -17 -18 -19 -20 -21 -22 -21 -21 -21 -21 -21 -21 -21 -20 -20 -22 -23 -22 -25 -27 -27 -27 -27 -26 -26 -26 -25 -25 -25 -24 -24 -23 -22 -22 -22 -21 -20 -20
-17 -17 -17 -18 -18 -18 -19 -21 -22 -22 -23 -23 -23 -22 -22 -22 -23 -23 -22 -23 -24 -24 -24 -26 -27 -27 -27 -27 -27 -27 -27 -27 -27 -26 -26 -25 -25 -24 -24 -24 -23 -23 -23 -23
-17 -17 -18 -19 -20 -21 -22 -22 -23 -23 -24 -24 -24 -23 -24 -24 -24 -24 -24 -25 -24 -25 -27 -29 -29 -28 -28 -28 -27 -27 -27 -28 -27 -27 -27 -26 -26 -26 -25 -25 -24 -23 -23 -23
-18 -19 -20 -21 -21 -21 -22 -23 -23 -24 -24 -24 -24 -24 -25 -25 -25 -25 -25 -25 -27 -27 -29 -29 -29 -29 -28 -28 -27 -27 -27 -27 -27 -27 -27 -27 -27 -27 -26 -26 -26 -25 -25 -24
-19 -20 -21 -21 -22 -22 -23 -23 -24 -24 -24 -25 -25 -25 -25 -26 -26 -26 -26 -27 -28 -29 -29 -29 -29 -29 -29 -29 -29 -29 -29 -28 -28 -28 -28 -28 -28 -27 -27 -27 -27 -26 -26 -25
-20 -21 -22 -22 -22 -23 -23 -23 -24 -24 -25 -25 -26 -26 -25 -26 -27 -27 -27 -27 -27 -28 -29 -29 -30 -30 -30 -30 -30 -31 -31 -30 -30 -30 -30 -29 -29 -29 -28 -27 -28 -27 -27 -26

GFSNW_700_temp_384.txt.gz
Temp
-8 -7 -7 -6 -6 -5 -6 -7 -8 -8 -8 -7 -8 -7 -7 -5 -4 -2 -2 -1 -1 -0 1 0 -1 0 1 1 1 -0 -1 -1 -1 -2 -1 -1 -1 -0 1 1 -2 0 0 3
-10 -8 -8 -6 -6 -6 -7 -7 -8 -9 -8 -7 -7 -8 -7 -7 -5 -4 -3 -2 -2 -1 -1 -1 -0 1 -0 0 0 -0 -2 -2 -3 -4 -4 -3 -3 -2 -1 0 1 2 -1 3
-12 -10 -8 -6 -6 -6 -7 -8 -7 -7 -7 -7 -7 -8 -8 -7 -6 -5 -4 -3 -3 -2 -2 -1 -1 -1 -1 -1 -1 -2 -2 -2 -1 -2 0 0 -1 -0 -1 -1 -0 1 2 2
-13 -12 -10 -7 -7 -6 -7 -8 -7 -7 -7 -8 -6 -7 -6 -6 -6 -6 -5 -4 -4 -3 -3 -3 -3 -2 -2 -2 -2 -3 -4 -3 -2 -1 -1 -0 0 1 1 -1 0 -1 1 1
-13 -13 -12 -11 -8 -7 -7 -7 -7 -7 -7 -8 -9 -8 -8 -7 -5 -5 -5 -4 -4 -4 -4 -3 -2 -3 -3 -3 -3 -3 -4 -3 -3 -3 -2 -2 -1 -0 0 0 1 -0 -0 0
-13 -13 -13 -11 -11 -8 -7 -8 -8 -8 -8 -8 -9 -8 -8 -7 -7 -6 -6 -5 -5 -5 -4 -4 -4 -4 -4 -4 -4 -4 -4 -4 -4 -4 -3 -3 -3 -1 -1 1 1 1 -0 2
-13 -13 -13 -12 -10 -10 -8 -7 -8 -8 -8 -8 -7 -6 -8 -8 -7 -7 -7 -8 -8 -7 -7 -6 -5 -5 -5 -5 -5 -5 -5 -5 -5 -4 -5 -8 -2 -2 -1 -1 -0 0 0 1
-14 -13 -13 -12 -10 -10 -9 -9 -8 -8 -8 -7 -9 -8 -7 -8 -8 -8 -8 -7 -6 -7 -7 -7 -7 -6 -6 -6 -6 -6 -6 -6 -6 -5 -5 -3 -3 -2 -2 -1 -0 -0 -0 -0
-13 -13 -13 -12 -11 -9 -9 -9 -8 -8 -8 -8 -7 -8 -8 -9 -9 -9 -8 -8 -8 -8 -8 -8 -7 -7 -7 -7 -7 -6 -7 -8 -7 -7 -6 -9 -4 -2 -3 -3 -2 -1 -1 -1
-13 -13 -13 -12 -11 -10 -9 -9 -9 -8 -8 -8 -8 -8 -8 -8 -9 -9 -9 -9 -9 -9 -8 -7 -7 -7 -7 -6 -7 -7 -7 -8 -8 -8 -8 -6 -4 -4 -4 -5 -3 -2 -1 -1
-13 -13 -12 -12 -11 -10 -9 -9 -9 -8 -8 -8 -9 -8 -8 -9 -9 -9 -9 -9 -9 -9 -9 -9 -8 -8 -7 -7 -6 -6 -6 -8 -8 -8 -8 -7 -6 -6 -5 -4 -3 -3 -3 -2
-13 -12 -12 -11 -10 -10 -10 -9 -9 -8 -8 -8 -9 -9 -9 -9 -8 -8 -9 -9 -8 -9 -9 -9 -9 -8 -8 -8 -8 -7 -7 -6 -6 -7 -6 -5 -5 -5 -5 -5 -4 -4 -4 -4
-13 -12 -12 -11 -11 -11 -10 -9 -10 -9 -9 -9 -9 -9 -9 -9 -9 -8 -9 -9 -9 -9 -9 -9 -9 -9 -8 -8 -8 -8 -7 -7 -7 -6 -6 -6 -6 -6 -6 -6 -6 -6 -5 -5
-13 -12 -11 -11 -11 -11 -10 -10 -9 -9 -9 -9 -10 -9 -9 -9 -9 -8 -8 -8 -8 -9 -9 -9 -9 -9 -9 -8 -8 -8 -8 -8 -8 -8 -7 -6 -6 -6 -6 -7 -7 -7 -6 -6
-12 -12 -12 -12 -11 -11 -11 -10 -10 -9 -9 -9 -10 -10 -9 -9 -9 -9 -9 -9 -9 -9 -9 -9 -9 -9 -9 -9 -9 -9 -9 -9 -9 -9 -8 -8 -7 -7 -7 -7 -7 -7 -7 -7
-13 -13 -12 -12 -12 -12 -11 -10 -11 -10 -9 -10 -12 -12 -12 -11 -10 -9 -9 -9 -9 -9 -9 -9 -9 -9 -9 -9 -9 -9 -9 -9 -9 -9 -9 -8 -8 -8 -8 -9 -9 -9 -9 -9
-14 -13 -13 -12 -12 -11 -11 -11 -12 -12 -11 -10 -11 -12 -12 -12 -12 -11 -11 -10 -10 -10 -10 -10 -10 -10 -10 -9 -10 -12 -11 -11 -11 -10 -10 -10 -10 -10 -10 -10 -10 -10 -10 -10
-14 -14 -13 -13 -13 -12 -12 -12 -12 -12 -13 -12 -13 -15 -14 -13 -13 -12 -12 -11 -11 -11 -11 -11 -11 -11 -12 -13 -15 -15 -15 -15 -15 -15 -14 -13 -13 -13 -13 -13 -13 -13 -13 -12
-14 -14 -14 -14 -14 -14 -13 -13 -13 -13 -13 -13 -15 -16 -16 -16 -15 -14 -14 -13 -13 -14 -14 -14 -14 -15 -16 -20 -19 -19 -19 -19 -19 -18 -18 -17 -17 -17 -16 -16 -16 -16 -15 -15
-15 -15 -14 -14 -15 -15 -15 -15 -14 -14 -14 -16 -18 -18 -18 -17 -17 -17 -16 -16 -16 -16 -16 -16 -17 -21 -24 -24 -24 -24 -23 -23 -23 -22 -21 -20 -20 -19 -19 -18 -18 -18 -17 -17
-15 -15 -15 -16 -16 -16 -16 -16 -16 -17 -18 -20 -20 -19 -19 -19 -18 -17 -17 -18 -18 -18 -19 -18 -21 -26 -26 -26 -26 -26 -25 -25 -25 -24 -24 -23 -22 -22 -21 -21 -20 -19 -19 -19
-16 -16 -17 -17 -17 -17 -17 -19 -20 -21 -22 -23 -21 -20 -20 -19 -19 -19 -19 -19 -19 -21 -22 -21 -26 -29 -29 -28 -28 -28 -27 -27 -27 -27 -26 -26 -25 -24 -24 -23 -23 -22 -22 -22
-17 -17 -17 -18 -19 -19 -20 -22 -23 -23 -24 -24 -23 -22 -22 -22 -21 -21 -21 -22 -23 -24 -24 -27 -31 -30 -30 -29 -29 -28 -28 -28 -28 -28 -27 -27 -27 -27 -26 -26 -26 -25 -24 -24
-17 -18 -19 -20 -21 -23 -23 -23 -23 -24 -24 -24 -24 -23 -23 -23 -23 -23 -24 -24 -25 -26 -27 -29 -29 -29 -29 -28 -28 -27 -27 -27 -26 -26 -26 -26 -26 -26 -26 -26 -25 -25 -25 -25
-18 -20 -21 -23 -23 -23 -24 -24 -24 -24 -24 -24 -24 -24 -24 -24 -24 -25 -25 -26 -27 -28 -29 -30 -29 -29 -29 -29 -28 -28 -28 -28 -27 -27 -27 -27 -27 -26 -26 -26 -25 -25 -25 -25
-21 -22 -23 -24 -24 -24 -24 -24 -24 -25 -25 -25 -25 -25 -25 -25 -26 -26 -27 -27 -29 -30 -30 -30 -31 -30 -30 -30 -30 -30 -29 -29 -29 -29 -29 -29 -29 -29 -29 -28 -28 -28 -27 -27
-22 -24 -23 -24 -24 -24 -25 -25 -26 -26 -26 -26 -26 -26 -26 -27 -28 -28 -29 -30 -30 -30 -30 -30 -31 -31 -30 -31 -31 -31 -31 -31 -32 -32 -33 -33 -33 -33 -32 -32 -31 -31 -30 -29